Showing default

OPS 7034 (TRANSIT 18), 3133

Orbit data source: Space-Track

OPS 7034 (TRANSIT 18), 3133 is a payload satellite owned by USN NAVAIR (US) in LEO that was launched on Sat, 02 Mar 1968 UTC via an SCOUT A launch vehicle from the Air Force Western Test Range (AFWTR). Payload-class satellites include a variety of spacecraft equipped with specific instruments for various scientific and technological missions. These include communications satellites like Starlink; space stations such as the ISS; scientific satellites like the Hubble; Earth observation satellites from companies like Planet Labs, Umbra, and HawkEye 360; GPS; miniature CubeSats for education and research; and military/defense satellites.

Loading next visibility...
Identifier
3133, 1968-012A
Orbit
LEO
Last TLE update
6 hours ago
Origin
Manufacturer
RCA/East Windsor
Mission
Defense Navigation
Bus & Motor
TRANSIT 5, Unknown motor
Mass
60 kg wet, 60 kg dry
Launch date (UTC)
1968-03-02 (57 years ago)
Launch vehicle
SCOUT A
Launch site
Air Force Western Test Range (AFWTR)
Object type
Payload
Rocket body
Debris
Shape & HBR
Oct Cyl + 4 Pan + 1 Rod, Unknown HBR
Radar Cross Section
7.565 m², Large (>1 m²)

Expand to show TLE details & history

TLE from 6 hours ago
0 OPS 7034 (TRANSIT 18)
1  3133U 68012A   25186.80633286  .00000091  00000-0  12398-3 0  9991
2  3133  90.0269 273.2646 0071825 273.8431 206.7558 13.51522220824098
Epoch: 2025-07-05T19:21Z
TLE epoch observation values (Epoch: 2025-07-05T19:21:07.159Z)
Latitude
59.85802°
Longitude
-121.00823°
Altitude
1,124.753 km
Speed
7.272 km/s
True Right ascension
06h 13m 14s
True Declination
59° 42' 57"
Sunlit
Object was in daylight at epoch
Visualization orbit readout
Latitude
-15.59067°
Longitude
-121.06114°
Altitude
1,061.24 km
Speed
7.326 km/s
Apparent Right ascension
04h 11m 17s
Apparent Declination
-32° 37' 05"
Sunlit
Object is in daylight
Visualization observer readout
Local Sidereal Time
12:59:57
Azimuth
265.365° W
Elevation
-51.22°
Doppler factor
1
Orbital elements
Apogee altitude
1,117.162 km
Perigee altitude
1,010.259 km
Semi-major axis
7,441.848 km
Eccentricity
0.00718
Inclination
90.0269°
RAAN
273.2646°
Arg. of periapsis
273.8431°
True anomaly
Unknown
Mean anomaly
206.7558°
Eccentric anomaly
Unknown
Mean motion
3.38082 °/min
Orbital period
106.48 mins
BSTAR
0.00012398
Loading maneuver chart data...
Loading SW <> Apogee altitude chart data...
Loading historical data...
Loading historical data...
Loading historical data...
Loading historical data...
Loading historical data...
Loading historical data...
Loading historical data...

OPS 7034 (TRANSIT 18) Visibility forecast

Observer location: undefined°, undefined°

Span
Click to sort rows by Start time (UTC) header in descending order
Start Az.
Max El. time (UTC)
Max El. Az.
Max El.
End time (UTC)
End Az.
12 mins2025-07-06 05:31:20.181Z149.057° SSE2025-07-06 05:37:20.181Z70.267° E36.004°2025-07-06 05:43:20.181Z9.74° NNE
9 mins2025-07-06 07:19:20.181Z229.847° WSW2025-07-06 07:23:20.181Z275.976° WNW25.384°2025-07-06 07:28:20.181Z330.757° NNW
8 mins2025-07-06 16:42:20.181Z41.224° NE2025-07-06 16:46:20.181Z82.263° E18.912°2025-07-06 16:50:20.181Z120.92° SE
12 mins2025-07-06 18:27:20.181Z354.62° N2025-07-06 18:33:20.181Z255.278° W42.069°2025-07-06 18:39:20.181Z196.505° SSW
|